Weather in Krusevo

North Macedonia     41°20′28″N   21°15′20″E
temp.,
°C
wind,
m/s
gust,
m/s
humid.,
%
clouds,
%
prec.,
mm/h
press.,
hPa
HPBL,
m
8 may, sat
sat823:00+12w327356 0.0 101224
02:00+10w33794 0.0 101227
05:00+9nw22734 0.0 101315
08:00+12ne3370100 0.0 1016466
11:00+14ne336897 0.0 10161030
14:00+16ne345979 0.0 10161265
17:00+15ene236486 0.0 1017933
20:00+11ne2276100 0.0 101934
9 may, sun
sun923:00+7n228557 0.0 102318
02:00+6nnw228228 0.0 102422
05:00+4nnw11835 0.0 102413
08:00+9e11625 0.0 1025302
11:00+14ese22435 0.0 1024884
14:00+17ese235010 0.0 10221251
17:00+17se436220 0.0 1022877
20:00+10se12900 0.0 102318
10 may, mon
mon1023:00+8se11950 0.0 102512
02:00+7wnw019715 0.0 102510
05:00+6wsw009715 0.0 102410
08:00+11ese118319 0.0 1024315
11:00+16ese22645 0.0 1022804
14:00+19ese325350 0.0 10201133
17:00+19se22548 0.0 1018956
20:00+13se11814 0.0 101912
11 may, tue
tue1123:00+10ese01894 0.0 102011
02:00+9nw00917 0.0 102010
05:00+8wnw00940 0.0 101910
08:00+13se11810 0.0 1018280
11:00+18ese22630 0.0 1017795
14:00+21ese335211 0.0 10141365
17:00+21se33542 0.0 10121037
20:00+14s128111 0.0 101214
12 may, wed
wed1223:00+12wsw11872 0.0 101310
02:00+11wsw11900 0.0 101210
05:00+10sw1191100 0.0 101110
08:00+14sse22799 0.0 1009318
11:00+20ssw365021 0.2 10071794
14:00+19wsw465599 0.4 1007998
17:00+17wsw575917 0.0 1007940
20:00+10w33850 0.1 100938